STARLINK-3996

operational
NORAD ID: 52617 Int'l Des: 2022-052 Owner: SPXS Country: US Constellation: starlink
LEOCIRCULAR

About STARLINK-3996

Description loading...

Live Position

Loading 3D Globe...

Upcoming Passes

Altitude History

Altitude vs Time

uPlot chart will show altitude changes over time

Two-Line Element Set

1 52617U 22052V 25251.05493713 -.00000623 00000-0 -21041-4 0 9994
2 52617 53.2186 9.0035 0001411 83.0316 277.0836 15.08833933183416
Epoch: Sep 8, 2025 • Age: 14 hours

Current Status

Altitude 539.7 km
Velocity 7.60 km/s
Sub-Earth Point 18.61°N, 156.91°E
Launch Date May 14, 2022
Age 3.3 years
Type internet

Technical Details

Classification Payload
Mass 297.00 kg
Dry Mass 275.00 kg
Total Mass 297.00 kg
Length 0.20 m
Diameter 2.80 m
Span 9.00 m
Shape Box + pan
Manufacturer SPXS
Bus Type Starlink
Phase Status In Orbit
Owner/State SPXS/US

Large Constellations

Loading constellations...